Location: Mitty Observatory
(35.9148°N, 88.8847°W)
Time: 03:24:29
(UTC-06:00)

LightSail 2 - Pass Details

Date: 23 January 2021
Orbit: 691 x 703 km, 24.0° (Epoch: 25 February)

Event Time Altitude Azimuth Distance (km) Brightness Sun altitude
Exits shadow 05:38:44 - 217° (SW) 2,876 8.0 -16.8°
Reaches altitude 10° 05:41:48 10° 194° (SSW) 2,125 7.6 -16.2°
Maximum altitude 05:44:11 13° 165° (SSE) 1,903 7.7 -15.8°
Drops below altitude 10° 05:46:35 10° 136° (SE) 2,129 8.5 -15.3°
Sets 05:50:12 0° 110° (ESE) 3,050 10.3 -14.6°
